[[{"header":{"parameterUnit":"m.s-1","parameterCategory":1,"la1":30.2991,"la2":30.254,"lo1":-89.0895,"lo2":-89.0444,"dy":0.0017,"dx":0.0017,"nx":28,"ny":28,"refTime":"2024-05-12T09:00:00:Z","depth":0,"parameterNumber":2,"parameterNumberName":"U-component_of_WINDS"},"data":[0,0,0,0,0,0,0,0,0,0,0,0,0,0,0,0,0,0,0,0,0,0,0,0,0,0,0,0,0,0,0,0,0,0,0,0,0,0,0,0,0,0,0,0,0,0,0,0,0,0,0,0,0,0,0,0,0,0,-2.0217,-2.0217,0,-2.0238,-2.0238,-2.0238,-2.0266,-2.0266,-2.0267,-2.0267,-2.0288,-2.0288,-2.0288,0,0,0,0,0,0,0,0,0,0,0,0,0,-2.0199,-2.0199,-2.0216,-2.0217,-2.0217,-2.0238,-2.0238,-2.0238,-2.0266,-2.0266,-2.0267,-2.0267,-2.0288,-2.0288,-2.0288,0,0,0,0,0,0,0,0,0,0,0,0,0,-2.0212,-2.0199,-2.0216,-2.0233,-2.0235,-2.0238,-2.0238,-2.0238,-2.0265,-2.0266,-2.0267,-2.0267,-2.0288,-2.0288,-2.0288,-2.0276,0,0,-2.0289,-2.0289,0,0,0,0,0,0,0,0,-2.0211,-2.0213,-2.023,-2.0232,-2.0234,-2.025,-2.024,-2.0251,-2.0265,-2.0254,-2.0267,-2.0268,-2.0275,-2.0276,-2.0278,-2.0277,-2.0278,-2.0289,-2.0289,-2.0289,-2.0289,0,0,0,0,0,0,0,-2.021,-2.0212,-2.0225,-2.0231,-2.0233,-2.0239,-2.0242,-2.0242,-2.026,-2.0255,-2.0257,-2.0259,-2.0276,-2.0278,-2.0279,-2.0278,-2.0289,-2.0289,-2.0289,-2.0289,-2.0267,-2.0267,0,0,0,0,0,0,-2.0207,-2.0211,-2.0224,-2.0226,-2.0224,-2.0239,-2.0242,-2.0244,-2.026,-2.0263,-2.0258,-2.026,-2.0278,-2.0279,-2.028,-2.0266,-2.0289,-2.0289,-2.029,-2.0268,-2.0267,-2.0266,0,0,0,0,0,0,-2.0207,-2.0208,-2.0223,-2.0219,-2.0221,-2.0239,-2.0241,-2.0244,-2.0246,-2.0263,-2.0266,-2.0258,-2.0278,-2.028,-2.0277,-2.0267,-2.029,-2.029,-2.0269,-2.0268,-2.0267,-2.0238,0,0,0,0,0,0,-2.0206,-2.0208,-2.0203,-2.0219,-2.0221,-2.022,-2.024,-2.0244,-2.0247,-2.0249,-2.0263,-2.0266,-2.0279,-2.0276,-2.0277,-2.0268,-2.029,-2.027,-2.0268,-2.0267,-2.024,-2.0237,-2.0233,0,0,0,0,0,-2.0205,-2.0195,-2.0203,-2.0204,-2.0216,-2.0219,-2.0221,-2.0236,-2.0246,-2.0242,-2.0252,-2.0266,-2.0268,-2.0276,-2.0277,-2.0268,-2.027,-2.0269,-2.0267,-2.0242,-2.0237,-2.0233,0,0,0,0,0,0,-2.0178,-2.0197,-2.0206,-2.02,-2.0208,-2.0224,-2.0219,-2.0231,-2.0235,-2.0238,-2.0256,-2.0259,-2.0253,-2.026,-2.0268,-2.0256,-2.0271,-2.027,-2.0252,-2.0248,-2.0244,-2.0242,-2.029,0,0,0,0,0,-2.0171,-2.0172,-2.0189,-2.0182,-2.0185,-2.0201,-2.0203,-2.0214,-2.0222,-2.0226,-2.0236,-2.0244,-2.0246,-2.0247,-2.0251,-2.0242,-2.0245,-2.0236,-2.0233,-2.023,-2.0228,-2.0223,-2.0219,-2.0261,-2.0261,-2.0261,0,0,-2.0157,-2.0168,-2.0167,-2.0176,-2.0184,-2.0184,-2.0204,-2.0203,-2.0203,-2.0226,-2.0223,-2.0231,-2.0241,-2.0234,-2.0232,-2.024,-2.0217,-2.0228,-2.0225,-2.0225,-2.0221,-2.0217,-2.0213,-2.026,-2.026,-2.026,0,0,-2.0131,-2.014,-2.0135,-2.0141,-2.0152,-2.0163,-2.0161,-2.0176,-2.0182,-2.018,-2.0196,-2.0197,-2.0201,-2.0207,-2.021,-2.0187,-2.0199,-2.0187,-2.0169,-2.0164,-2.016,-2.0157,-2.0148,-2.0144,-2.0186,-2.0186,-2.0186,0,-2.0112,-2.0113,-2.013,-2.0128,-2.0132,-2.0152,-2.0147,-2.0153,-2.0164,-2.0165,-2.0174,-2.0179,-2.0188,-2.0182,-2.0177,-2.0179,-2.0178,-2.0185,-2.0159,-2.0157,-2.0154,-2.0145,-2.0142,-2.0184,-2.0184,-2.0184,-2.0185,0,-2.0089,-2.009,-2.0084,-2.0094,-2.0097,-2.0093,-2.0109,-2.011,-2.0121,-2.0131,-2.0128,-2.0138,-2.0144,-2.0144,-2.0154,-2.014,-2.0144,-2.0156,-2.0171,-2.0148,-2.014,-2.0137,-2.0182,-2.0182,-2.0183,-2.0183,0,0,-2.0046,-2.0066,-2.0063,-2.0068,-2.0081,-2.0081,-2.0079,-2.0084,-2.0084,-2.0091,-2.0088,-2.0092,-2.0102,-2.0106,-2.0118,-2.0113,-2.0093,-2.0126,-2.0126,-2.0118,-2.0077,-2.0067,-2.0063,-2.0101,-2.0101,-2.01,-2.0075,0,-2.0022,-2.0019,-2.0034,-2.0026,-2.0026,-2.0045,-2.0043,-2.005,-2.0059,-2.0061,-2.0071,-2.0072,-2.0087,-2.0089,-2.0086,-2.0096,-2.0084,-2.0098,-2.0098,-2.0098,-2.0094,-2.0059,-2.0049,-2.0025,-2.0072,-2.0072,-2.0072,0,-1.9994,-1.9999,-1.9991,-2.0004,-2.0005,-2.0002,-2.0008,-2.0009,-2.0018,-2.0025,-2.0029,-2.0042,-2.004,-2.0055,-2.0052,-2.0061,-2.0062,-2.0067,-2.0067,-2.0066,-2.0083,-2.0057,-2.0017,-2.0013,-2.0067,-2.0067,-2.0068,0,-1.9962,-1.9967,-1.9963,-1.9966,-1.9982,-1.9979,-1.9986,-1.9995,-1.9997,-2.0002,-2.0004,-2.0009,-2.0011,-2.0014,-2.0028,-2.0038,-2.0023,-2.004,-2.0028,-2.0027,-2.0023,-2.0023,-1.9982,-2.0025,-2.0025,-2.0025,-2.0025,0,-1.9933,-1.9927,-1.9949,-1.9946,-1.994,-1.9957,-1.995,-1.9959,-1.9967,-1.9966,-1.9983,-1.9982,-2.0001,-2.0001,-2.0012,-2.0007,-2.0009,-2.0014,-2.0016,-2.0011,-2.0011,-2.0012,-2.0013,-2.0024,-2.0025,-2.0025,-2.0025,0,-1.9896,-1.9911,-1.9907,-1.9922,-1.9925,-1.992,-1.9933,-1.993,-1.9941,-1.9939,-1.994,-1.9956,-1.9957,-1.9972,-1.9976,-1.9984,-1.9974,-1.9981,-1.9971,-1.9973,-1.996,-1.996,-1.9917,-1.9912,-1.9959,-1.9959,-1.9959,0,-1.9876,-1.9872,-1.9887,-1.9887,-1.9893,-1.9893,-1.9895,-1.9912,-1.9914,-1.9923,-1.992,-1.9923,-1.9926,-1.9927,-1.9939,-1.9942,-1.9948,-1.9933,-1.9949,-1.9944,-1.9947,-1.9947,-1.9946,-1.993,-1.9929,-1.9928,-1.9928,0,-1.9839,-1.9847,-1.9849,-1.9854,-1.9856,-1.986,-1.9866,-1.9865,-1.9884,-1.9885,-1.9886,-1.9889,-1.9893,-1.9896,-1.9901,-1.9908,-1.992,-1.9923,-1.992,-1.9915,-1.9909,-1.9911,-1.996,-1.9924,-1.9924,-1.9925,-1.9925,-1.9925,-1.981,-1.9807,-1.9816,-1.9818,-1.9824,-1.9829,-1.9827,-1.9837,-1.9839,-1.9844,-1.9854,-1.9854,-1.9862,-1.9871,-1.9876,-1.9876,-1.9884,-1.988,-1.9879,-1.9878,-1.9875,-1.991,-1.9877,-1.9878,-1.9878,-1.9878,-1.9878,0,-1.9773,-1.978,-1.9781,-1.9789,-1.979,-1.9803,-1.9809,-1.9809,-1.9809,-1.9816,-1.9819,-1.982,-1.9823,-1.9835,-1.9838,-1.9836,-1.9841,-1.9836,-1.9836,-1.9837,-1.9868,-1.987,-1.9831,-1.9831,-1.9831,-1.9831,-1.9831,-1.9831,-1.9753,-1.9749,-1.9757,-1.9755,-1.9762,-1.9762,-1.9765,-1.9769,-1.9774,-1.9775,-1.9777,-1.9785,-1.9794,-1.9798,-1.9801,-1.9804,-1.9804,-1.9796,-1.9801,-1.983,-1.9835,-1.9839,-1.984,-1.9796,-1.9796,-1.977,-1.9769,-1.9769]},{"header":{"parameterUnit":"m.s-1","parameterCategory":1,"la1":30.2991,"la2":30.254,"lo1":-89.0895,"lo2":-89.0444,"dy":0.0017,"dx":0.0017,"nx":28,"ny":28,"refTime":"2024-05-12T09:00:00:Z","depth":0,"parameterNumber":3,"parameterNumberName":"V-component_of_WINDS"},"data":[0,0,0,0,0,0,0,0,0,0,0,0,0,0,0,0,0,0,0,0,0,0,0,0,0,0,0,0,0,0,0,0,0,0,0,0,0,0,0,0,0,0,0,0,0,0,0,0,0,0,0,0,0,0,0,0,0,0,5.7669,5.7671,0,5.7847,5.7849,5.7851,5.783,5.7827,5.7825,5.7822,5.8,5.8007,5.8014,0,0,0,0,0,0,0,0,0,0,0,0,0,5.7307,5.7314,5.7669,5.7671,5.7673,5.7846,5.7849,5.7851,5.7831,5.7827,5.7824,5.7821,5.7997,5.8006,5.8015,0,0,0,0,0,0,0,0,0,0,0,0,0,5.7472,5.7316,5.7668,5.7684,5.7687,5.7846,5.7849,5.7852,5.7832,5.7827,5.7823,5.7819,5.7994,5.8005,5.8016,5.8169,0,0,5.805,5.8055,0,0,0,0,0,0,0,0,5.7463,5.7486,5.768,5.7683,5.7687,5.7812,5.7787,5.7958,5.7833,5.7777,5.7822,5.7817,5.794,5.7956,5.7998,5.8177,5.8185,5.8051,5.8057,5.8062,5.8065,0,0,0,0,0,0,0,5.7452,5.7478,5.7739,5.7682,5.7687,5.7681,5.77,5.7819,5.788,5.7781,5.778,5.7802,5.7942,5.7988,5.8002,5.8188,5.805,5.806,5.8067,5.8071,5.8502,5.8506,0,0,0,0,0,0,5.7437,5.7469,5.7733,5.7744,5.7563,5.7691,5.7712,5.7776,5.7879,5.789,5.7805,5.78,5.7971,5.7989,5.8008,5.8195,5.8062,5.8072,5.8079,5.8497,5.8503,5.8508,0,0,0,0,0,0,5.7429,5.7461,5.7726,5.7606,5.764,5.7702,5.7774,5.7782,5.7828,5.7897,5.7907,5.7841,5.7968,5.7993,5.813,5.8201,5.8077,5.8087,5.8491,5.8499,5.8506,5.8569,0,0,0,0,0,0,5.7419,5.7458,5.7518,5.7608,5.7646,5.7846,5.7778,5.7788,5.7848,5.7843,5.7933,5.7944,5.7967,5.8113,5.8141,5.8214,5.8096,5.8485,5.8495,5.8503,5.8561,5.8577,5.8591,0,0,0,0,0,5.7406,5.7528,5.7521,5.7553,5.7723,5.785,5.7872,5.7897,5.7853,5.7913,5.7958,5.7941,5.8189,5.8128,5.8158,5.8235,5.8481,5.8492,5.8503,5.8554,5.8574,5.8591,0,0,0,0,0,0,5.7443,5.754,5.7534,5.7688,5.7761,5.7847,5.7923,5.7917,5.8003,5.7995,5.802,5.8041,5.8179,5.8221,5.8151,5.8389,5.8329,5.8346,5.8357,5.8377,5.8392,5.8379,5.8105,0,0,0,0,0,5.7469,5.7566,5.7645,5.7774,5.7811,5.7861,5.7917,5.793,5.8006,5.8037,5.8091,5.8164,5.8258,5.832,5.841,5.8566,5.8586,5.8635,5.865,5.8662,5.8677,5.8763,5.8786,5.8544,5.8544,5.8543,0,0,5.7524,5.7589,5.7648,5.7783,5.7841,5.794,5.7887,5.7993,5.8067,5.8052,5.8186,5.8228,5.8311,5.8459,5.8526,5.8498,5.8748,5.8676,5.8686,5.8694,5.8776,5.8799,5.882,5.8551,5.855,5.8548,0,0,5.7674,5.7734,5.7848,5.7907,5.7997,5.803,5.8057,5.8144,5.8172,5.8306,5.8298,5.8384,5.8546,5.8606,5.8658,5.8832,5.882,5.886,5.8941,5.9024,5.9043,5.906,5.9122,5.9144,5.8875,5.8875,5.8875,0,5.7731,5.7881,5.7906,5.8015,5.8074,5.8067,5.8182,5.8238,5.8352,5.8393,5.8359,5.8563,5.8618,5.878,5.8823,5.8865,5.8896,5.885,5.9039,5.9056,5.9072,5.9132,5.9155,5.8879,5.8879,5.8878,5.8878,0,5.7946,5.805,5.8131,5.8243,5.8311,5.8422,5.8463,5.8529,5.8536,5.8572,5.8708,5.8775,5.8879,5.8918,5.8925,5.9081,5.9061,5.9033,5.8973,5.9099,5.9156,5.9179,5.8885,5.8884,5.8883,5.8882,0,0,5.8124,5.825,5.8279,5.833,5.8429,5.8509,5.8619,5.8723,5.8779,5.8857,5.895,5.9087,5.9063,5.9121,5.9135,5.9208,5.9342,5.9171,5.9174,5.9201,5.9518,5.9538,5.9564,5.9335,5.9339,5.9343,5.9511,0,5.8285,5.8482,5.8508,5.8682,5.8779,5.8774,5.887,5.894,5.8976,5.9062,5.9101,5.9199,5.9158,5.9194,5.9266,5.931,5.9406,5.9298,5.942,5.9424,5.94,5.9594,5.9616,5.9771,5.9533,5.9537,5.9539,0,5.8498,5.8585,5.8769,5.8855,5.8896,5.8983,5.908,5.9162,5.9241,5.9262,5.9329,5.9333,5.9446,5.9381,5.9537,5.9464,5.9515,5.9544,5.9551,5.9563,5.949,5.9611,5.9821,5.9845,5.9574,5.9572,5.9569,0,5.861,5.8773,5.8904,5.8948,5.9051,5.9112,5.9157,5.9232,5.9293,5.9377,5.9417,5.9512,5.9565,5.9638,5.9668,5.9618,5.9823,5.976,5.9843,5.9842,5.9886,5.9883,6.0107,5.9919,5.9919,5.9918,5.9918,0,5.8787,5.89,5.8956,5.9037,5.9163,5.9192,5.9315,5.9358,5.9425,5.9513,5.9514,5.9597,5.9631,5.9719,5.9743,5.9868,5.9892,5.9912,5.9917,5.9912,5.9909,5.9946,5.9936,5.9924,5.9923,5.9922,5.9921,0,5.8933,5.8976,5.9119,5.9205,5.923,5.9319,5.9392,5.947,5.9505,5.9617,5.9645,5.97,5.9804,5.9841,5.9966,5.9982,6.0128,6.0124,6.0102,6.0103,6.0184,6.0176,6.044,6.0476,6.0263,6.0265,6.0267,0,5.9043,5.9131,5.9227,5.9287,5.9335,5.9432,5.9494,5.9525,5.959,5.9687,5.9753,5.9856,5.994,6.0105,6.0156,6.0252,6.025,6.0336,6.0264,6.0257,6.0252,6.0246,6.0255,6.0349,6.0351,6.0353,6.0354,0,5.9234,5.9251,5.9342,5.9441,5.9515,5.9594,5.967,5.9719,5.9761,5.9833,5.994,6.0005,6.0134,6.0236,6.0335,6.038,6.0375,6.0377,6.0401,6.0397,6.0381,6.0391,6.0138,6.037,6.0369,6.0368,6.0367,6.0366,5.9366,5.9444,5.9524,5.9625,5.9686,5.9757,5.9835,5.9881,5.9971,6.0079,6.0091,6.0206,6.0282,6.0414,6.0464,6.0554,6.053,6.0565,6.0574,6.0582,6.0588,6.0367,6.0571,6.0571,6.0571,6.057,6.057,0,5.9558,5.9609,5.9702,5.981,5.9889,5.9878,5.9962,6.0029,6.013,6.0203,6.0286,6.0408,6.0508,6.0567,6.0666,6.0726,6.0726,6.0751,6.0747,6.0758,6.0604,6.0573,6.075,6.075,6.075,6.075,6.0749,6.0749,5.9667,5.9797,5.9824,5.9984,6.0034,6.0148,6.0197,6.0262,6.0321,6.0458,6.0541,6.0579,6.0646,6.0751,6.0841,6.0856,6.0892,6.092,6.0932,6.0787,6.0768,6.0751,6.0722,6.0927,6.0928,6.1079,6.108,6.1081]}]]